User: anonymous   Login
Location: Pabrico
(37.5827°N, 122.0063°W)
Time: 17:03:17
(UTC+00:00)
Language:

Cosmos 1048 Rocket - Orbit

View from above orbital plane
View from above orbital plane
View from above satellite
View from above satellite

Ground track
Ground track

The orbit data is extracted from the following two-line orbital elements,

1 11112U 78105B   24171.17115109  .00000338  00000-0  11981-3 0  9994
2 11112  74.0294 136.6235 0032635  28.5394 331.7538 14.38025050387422
Epoch (UTC): 19 June 2024 04:06:27
Eccentricity: 0.0032635
inclination: 74.0294°
perigee height: 742 km
apogee height: 788 km
right ascension of ascending node: 136.6235°
argument of perigee: 28.5394°
revolutions per day: 14.38025050
mean anomaly at epoch: 331.7538°
orbit number at epoch: 38742

The dashed part of the orbit path shows where the satellite is in the earth's shadow,  

DLR